Home > Time Zones > World Clock > Weather > India > Churu > Past weeks

Flag for India Weather past 2 weeks in Churu, Rajasthan, India

Now
63 °F

Thunderstorms. More clouds than sun.


Feels Like: 63 °F
Forecast: 57 / 70 °F
Wind: 12 mph from Southwest

Location: Jaipur / Sanganer

Current Time: Mar 1, 2015 at 5:34:33 PM

Latest Report: Mar 1, 2015 at 4:30 PM


Visibility: 2 mi

Pressure: 29.80 "Hg

Humidity: 100%

Dew point: 63 °F

Location of ChuruLocation

Historic Weather in Churu — Graph

°F

Churu temperature yesterday

Maximum temperature yesterday: 79 °F (at 12:00 PM)
Minimum temperature yesterday: 63 °F (at 5:00 AM)
Average temperature yesterday: 70 °F

Past Weeks' High & Low Weather Summary

 TemperatureHumidityPressure
High95 °F (Feb 23, 7:30 PM)100% (Mar 1, 9:00 AM)30.09 "Hg (Mar 1, 9:00 AM)
Low59 °F (Feb 15, 8:00 AM)11% (Feb 26, 5:00 PM)29.77 "Hg (Feb 25, 4:00 PM)
Average74 °F43%29.93 "Hg
* Reported Feb 14 3:00 PM — Mar 1 3:00 PM, Churu, Weather by CustomWeather, © 2015

Note: Actual official high and low records may vary slightly from our data, if they occured in-between our weather recording intervals... More about our weather records

Advertising

Churu weather history for previous 24 hours

 ConditionsComfort  
Time TempWeatherWind HumidityBarometerVisibility
3:00 PM
Sun, Mar 1
66 °FFog.6 mph94%29.77 "Hg1 mi
2:00 PM64 °FThunderstorms. Broken clouds.6 mph100%29.80 "Hg1 mi
1:00 PM64 °FRain. Broken clouds.7 mph100%29.83 "Hg1 mi
10:00 AM63 °FFog.9 mph94%29.86 "Hg1 mi
9:30 AM61 °FFog.7 mph100%29.86 "Hg1 mi
9:00 AM61 °FDrizzle. More clouds than sun.9 mph100%29.86 "Hg1 mi
8:00 AM61 °FFog.13 mph94%29.83 "Hg1 mi
7:00 AM61 °FFog.12 mph94%29.83 "Hg1 mi
6:00 AM61 °FFog.14 mph88%29.80 "Hg1 mi
5:00 AM61 °FFog.15 mph94%29.80 "Hg1 mi
2:00 AM63 °FThunderstorms. Partly cloudy.16 mph88%29.86 "Hg1 mi
12:00 AM66 °FPartly cloudy.12 mph60%29.89 "Hg2 mi
11:00 PM
Sat, Feb 28
66 °FPartly cloudy.10 mph60%29.89 "Hg2 mi
10:00 PM68 °FPartly cloudy.7 mph60%29.89 "Hg2 mi
9:00 PM68 °FPartly cloudy.8 mph64%29.89 "Hg2 mi
7:00 PM70 °FPartly cloudy.3 mph57%29.92 "Hg2 mi
6:00 PM75 °FDrizzle. Broken clouds.13 mph41%29.86 "Hg2 mi
5:00 PM77 °FBroken clouds.13 mph34%29.86 "Hg2 mi
Weather by CustomWeather, © 2015

See weather overviewHow to use our weather pages